Regional Weather Roundup
Issued by NWS Little Rock, AR

Home | Current Version | Previous Version | Text Only | Print | Product List | Glossary On
Versions: 1 2 3 4 5 6 7 8 9 10 11 12 13 14 15 16 17 18 19 20 21 22 23 24 25 26 27 28 29 30 31 32
000
ASUS44 KLZK 252105
RWRLZK

WEATHER ROUNDUP FOR ARKANSAS
NATIONAL WEATHER SERVICE LITTLE ROCK AR
400 PM CDT SAT MAR 25 2017

NOTE: "FAIR" INDICATES FEW OR NO CLOUDS BELOW 12,000 FEET WITH NO
SIGNIFICANT WEATHER AND/OR OBSTRUCTIONS TO VISIBILITY.

ARZ001-003-010-029-252200-
NORTHWEST ARKANSAS

CITY           SKY/WX    TMP DP  RH WIND       PRES   REMARKS
FAYETTEVILLE   CLOUDY    47  46  97 SW8       29.91R FOG
FORT SMITH     CLOUDY    54  45  71 W14       29.92F
HARRISON       CLOUDY    52  48  86 W8        29.87R
BENTONVILLE    CLOUDY    48  45  87 W10G17    29.90S
ROGERS         CLOUDY    48  46  93 SW16      29.90R
SILOAM SPGS    CLOUDY    48  43  81 W12G18    29.91R
HIGHFILL       CLOUDY    49  47  93 W14G20    29.89S
SPRINGDALE     CLOUDY    48  48 100 W12G18    29.91S FOG
$$

ARZ004-005-016-252200-
NORTH CENTRAL ARKANSAS

CITY           SKY/WX    TMP DP  RH WIND       PRES   REMARKS
BATESVILLE     MOSUNNY   64  48  55 SW18G29   29.86S
FLIPPIN        CLOUDY    61  46  59 W14G22    29.83R
MTN HOME       CLOUDY    59  49  69 VRB7      29.83R
$$

ARZ040-041-252200-
WEST CENTRAL ARKANSAS

CITY           SKY/WX    TMP DP  RH WIND       PRES   REMARKS
MENA           MOSUNNY   66  52  59 W9G18     29.89F
MOUNT IDA      CLOUDY    69  46  43 VRB6      29.85F
$$

ARZ009-017-025-026-028-252200-
NORTHEAST ARKANSAS

CITY           SKY/WX    TMP DP  RH WIND       PRES   REMARKS
CORNING        FAIR      68  57  68 SW25G32   29.82F
JONESBORO      MOSUNNY   68  54  60 SW21G31   29.84S
NEWPORT        CLOUDY    67  51  56 MISG      29.85R
WALNUT RIDGE   CLOUDY    68  52  56 CALM      29.82F
BLYTHEVILLE    CLOUDY    67  60  78 S20       29.86F
$$

ARZ022-023-033-042-044-252200-
CENTRAL ARKANSAS

CITY           SKY/WX    TMP DP  RH WIND       PRES   REMARKS
LITTLE ROCK    MOSUNNY   70  49  47 SW10      29.86F
N LITTLE ROCK    N/A     69  51  53 W8G21     29.86F
JACKSONVILLE   MOSUNNY   71  51  48 W13G21    29.85F
CONWAY           N/A     64  54  68 NW13      29.87R
SEARCY         CLOUDY    68  50  52 W12G17    29.88S
HOT SPRINGS    MOSUNNY   69  50  50 SW13      29.88F
RUSSELLVILLE   PTSUNNY   57  49  74 W15G23    29.90R
CLINTON        FAIR      64  52  63 SW12G22   29.86F
$$

ARZ036-252200-
EAST ARKANSAS

CITY           SKY/WX    TMP DP  RH WIND       PRES   REMARKS
WEST MEMPHIS   CLOUDY    68  61  78 S22G30    29.86F
$$

ARZ050-053-066-070-073-252200-
SOUTHWEST ARKANSAS

CITY           SKY/WX    TMP DP  RH WIND       PRES   REMARKS
ARKADELPHIA    FAIR      69  53  56 SW14G20   29.89F
CAMDEN         MOSUNNY   73  48  40 W8        29.90F
TEXARKANA      MOSUNNY   70  50  49 W12       29.90F
EL DORADO      MOSUNNY   72  50  45 W10       29.91F
DE QUEEN       PTSUNNY   67  52  58 W12       29.88F
$$

ARZ056-057-069-252200-
SOUTHEAST ARKANSAS

CITY           SKY/WX    TMP DP  RH WIND       PRES   REMARKS
PINE BLUFF     MOSUNNY   71  51  49 SW13G20   29.88F
STUTTGART      MOSUNNY   72  50  46 SW16      29.88F
MONTICELLO       N/A     74  48  39 W14G22    29.88F

$$






USA.gov is the U.S. government's official web portal to all federal, state and local government web resources and services.